World > North America > United States > Texas > Cotulla  

Cotulla, TX Hourly Weather Updates

Feedback E-mail the Weather

Quick Clicks

Cotulla, TX Weather Maps

°F °C°F °C
Cotulla Weather Map
UTC Time: 6/20/2024, 00:01
Your Time:

Cotulla, TX Regional Weather

Expires:202406200100;;319955
ASUS44 KSJT 200000
RWRSJT
WEST CENTRAL TEXAS REGIONAL WEATHER ROUNDUP
NATIONAL WEATHER SERVICE SAN ANGELO TX
700 PM CDT WED JUN 19 2024

NOTE: "FAIR" INDICATES FEW OR NO CLOUDS BELOW 12,000 FEET WITH NO
SIGNIFICANT WEATHER AND/OR OBSTRUCTIONS TO VISIBILITY.


TXZ229-232-234-239-242-243-245-247-249-250-
253-255-257-343-347-443-200100-
TEXAS COASTAL BEND, RIO GRANDE PLAINS DEEP SOUTH TEXAS
  
CITY           SKY/WX    TMP DP  RH WIND       PRES   REMARKS
VICTORIA       CLOUDY    77  76  96 NE18G28   29.85  TC  25           
BEEVILLE       CLOUDY    76  74  95 NE17G25   29.83  TC  24           
ROCKPORT       TSTM      81  79  94 NE23G35   29.77  VSB 3/4 TC  27   
PORT ARANSAS   NOT AVBL                                               
PORT LAVACA    CLOUDY    81  79  94 NE17G23   29.83S TC  27           
CORPUS CHRISTI LGT RAIN  82  78  88 NE15G30   29.76F TC  28           
KINGSVILLE NAS HVY RAIN  81  79  94 NE18G33   29.75F FOG     TC  27   
COTULLA        RAIN      76  74  93 NE18G25   29.88R FOG     TC  24   
LAREDO         RAIN      77  75  93 NE17      29.83R TC  25           
BROWNSVILLE    LGT RAIN  82  81  94 E21G36    29.63  FOG     TC  28   
PORT ISABEL    HVY RAIN  80  78  94 E23G39    29.66S FOG     TC  27   
HEBBRONVILLE   NOT AVBL                                               
MCALLEN        LGT RAIN  80  79  96 N12       29.69F TC  27           
WESLACO        NOT AVBL                                          

SKY/WX - Weather  TMP - Temperature  DP - Dew Point  RH - Humidity
WIND - Wind Direction/Speed PRES - Barometric Pressure VSB - Visibility
WCI - Wind Chill Index E13G22 Wind - East Wind 13 mph/Gusts of 22 mph

Trending Headlines

Trending Entertainment Headlines

Cotulla Radar Loop

Use the map search tool if you want to place a location marker on the radar map...

Cotulla Quick Facts

National Two Day Weather Forecast


E-mail the Cotulla Weather Forecast

Voice your opinion or tell us about page issues...